| time (UTC) | temp C | wind direction | speed KPH | gust KPH | rain 1hr cm | rain 24hr cm | rain mn cm | humidity % | barometer mb |
| 20260905020240 | 21 | 227 | 0.0 | 3.2 | 0.00 | 0.00 | 0.00 | 44 | 1015.8 |
| 20260905015740 | 21 | 227 | 0.0 | 4.8 | 0.00 | 0.00 | 0.00 | 44 | 1014.1 |
| 20260905015239 | 21 | 227 | 0.0 | 6.4 | 0.00 | 0.00 | 0.00 | 43 | 1014.3 |
| 20260905014739 | 21 | 227 | 0.0 | 6.4 | 0.00 | 0.00 | 0.00 | 43 | 1014.3 |
| 20260905014239 | 22 | 224 | 0.0 | 6.4 | 0.00 | 0.00 | 0.00 | 42 | 1014.3 |
| 20260905013740 | 22 | 224 | 0.0 | 9.7 | 0.00 | 0.00 | 0.00 | 42 | 1014.4 |
| 20260905013239 | 22 | 224 | 6.4 | 9.7 | 0.00 | 0.00 | 0.00 | 42 | 1014.5 |
| 20260905012740 | 22 | 237 | 1.6 | 4.8 | 0.00 | 0.00 | 0.00 | 41 | 1014.4 |
| 20260905012240 | 22 | 238 | 0.0 | 4.8 | 0.00 | 0.00 | 0.00 | 41 | 1014.5 |
| 20260905011739 | 23 | 250 | 1.6 | 4.8 | 0.00 | 0.00 | 0.00 | 41 | 1014.4 |
| 20260905011239 | 23 | 231 | 0.0 | 12.9 | 0.00 | 0.00 | 0.00 | 40 | 1014.3 |
| 20260905010739 | 23 | 231 | 4.8 | 12.9 | 0.00 | 0.00 | 0.00 | 40 | 1014.7 |
| 20260905010239 | 23 | 238 | 0.0 | 6.4 | 0.00 | 0.00 | 0.00 | 39 | 1014.6 |
| 20260905005739 | 24 | 238 | 0.0 | 14.5 | 0.00 | 0.00 | 0.00 | 40 | 1014.6 |
| 20260905005239 | 24 | 252 | 1.6 | 14.5 | 0.00 | 0.00 | 0.00 | 39 | 1014.6 |
| 20260905004739 | 25 | 252 | 6.4 | 12.9 | 0.00 | 0.00 | 0.00 | 39 | 1014.7 |
| 20260905004238 | 25 | 184 | 3.2 | 11.3 | 0.00 | 0.00 | 0.00 | 38 | 1014.7 |
| 20260905003239 | 25 | 239 | 9.7 | 14.5 | 0.00 | 0.00 | 0.00 | 39 | 1014.9 |
| 20260905002739 | 25 | 226 | 4.8 | 19.3 | 0.00 | 0.00 | 0.00 | 38 | 1015.0 |
| 20260905002238 | 26 | 220 | 3.2 | 19.3 | 0.00 | 0.00 | 0.00 | 38 | 1015.0 |
| 20260905001739 | 26 | 236 | 6.4 | 14.5 | 0.00 | 0.00 | 0.00 | 38 | 1014.9 |
| 20260905001238 | 26 | 238 | 4.8 | 16.1 | 0.00 | 0.00 | 0.00 | 39 | 1014.9 |
| 20260905000739 | 26 | 234 | 4.8 | 17.7 | 0.00 | 0.00 | 0.00 | 39 | 1014.8 |
| 20260905000241 | 26 | 229 | 9.7 | 17.7 | 0.00 | 0.00 | 0.00 | 39 | 1015.0 |
| 20260904235738 | 26 | 242 | 8.0 | 17.7 | 0.00 | 0.00 | 0.00 | 39 | 1015.4 |
| 20260904235238 | 26 | 243 | 3.2 | 19.3 | 0.00 | 0.00 | 0.00 | 39 | 1015.4 |
| 20260904234738 | 26 | 234 | 16.1 | 19.3 | 0.00 | 0.00 | 0.00 | 38 | 1015.3 |
| 20260904233738 | 27 | 235 | 6.4 | 16.1 | 0.00 | 0.00 | 0.00 | 38 | 1015.2 |
| 20260904233237 | 27 | 254 | 11.3 | 16.1 | 0.00 | 0.00 | 0.00 | 38 | 1015.2 |
| 20260904232727 | 27 | 225 | 14.5 | 16.1 | 0.00 | 0.00 | 0.00 | 37 | 1015.4 |
| 20260904232238 | 27 | 247 | 3.2 | 16.1 | 0.00 | 0.00 | 0.00 | 37 | 1015.4 |
| 20260904231738 | 27 | 193 | 4.8 | 14.5 | 0.00 | 0.00 | 0.00 | 37 | 1015.4 |
| 20260904230738 | 27 | 245 | 12.9 | 19.3 | 0.00 | 0.00 | 0.00 | 37 | 1015.4 |
| 20260904230237 | 27 | 214 | 3.2 | 19.3 | 0.00 | 0.00 | 0.00 | 37 | 1015.6 |
| 20260904225738 | 27 | 234 | 6.4 | 19.3 | 0.00 | 0.00 | 0.00 | 37 | 1015.3 |
| 20260904225237 | 27 | 233 | 9.7 | 20.9 | 0.00 | 0.00 | 0.00 | 36 | 1015.5 |
| 20260904224738 | 28 | 234 | 19.3 | 22.5 | 0.00 | 0.00 | 0.00 | 36 | 1015.6 |
| 20260904224238 | 28 | 224 | 6.4 | 22.5 | 0.00 | 0.00 | 0.00 | 35 | 1015.6 |
| 20260904223737 | 28 | 220 | 0.0 | 20.9 | 0.00 | 0.00 | 0.00 | 36 | 1015.6 |
| 20260904223237 | 28 | 257 | 16.1 | 17.7 | 0.00 | 0.00 | 0.00 | 35 | 1015.7 |
| 20260904221726 | 27 | 245 | 16.1 | 22.5 | 0.00 | 0.00 | 0.00 | 35 | 1015.8 |
| 20260904221237 | 28 | 229 | 6.4 | 22.5 | 0.00 | 0.00 | 0.00 | 35 | 1015.7 |
| 20260904220237 | 28 | 227 | 19.3 | 22.5 | 0.00 | 0.00 | 0.00 | 34 | 1015.8 |
| 20260904215737 | 28 | 241 | 3.2 | 19.3 | 0.00 | 0.00 | 0.00 | 33 | 1016.1 |
| 20260904215237 | 28 | 238 | 17.7 | 19.3 | 0.00 | 0.00 | 0.00 | 33 | 1016.0 |
| 20260904214736 | 28 | 232 | 4.8 | 19.3 | 0.00 | 0.00 | 0.00 | 33 | 1016.0 |
| 20260904213737 | 28 | 221 | 4.8 | 22.5 | 0.00 | 0.00 | 0.00 | 32 | 1016.2 |
| 20260904212737 | 28 | 252 | 8.0 | 24.1 | 0.00 | 0.00 | 0.00 | 31 | 1016.4 |
| 20260904211736 | 29 | 217 | 9.7 | 22.5 | 0.00 | 0.00 | 0.00 | 29 | 1016.1 |
| 20260904211237 | 29 | 242 | 17.7 | 17.7 | 0.00 | 0.00 | 0.00 | 29 | 1016.2 |
| 20260904210736 | 30 | 241 | 4.8 | 17.7 | 0.00 | 0.00 | 0.00 | 29 | 1016.5 |
| 20260904210236 | 30 | 219 | 6.4 | 19.3 | 0.00 | 0.00 | 0.00 | 28 | 1016.6 |
| 20260904205736 | 30 | 184 | 6.4 | 19.3 | 0.00 | 0.00 | 0.00 | 27 | 1016.8 |
| 20260904204736 | 30 | 238 | 16.1 | 19.3 | 0.00 | 0.00 | 0.00 | 27 | 1016.8 |
| 20260904204236 | 29 | 229 | 6.4 | 16.1 | 0.00 | 0.00 | 0.00 | 27 | 1016.5 |
| 20260904203736 | 28 | 165 | 8.0 | 16.1 | 0.00 | 0.00 | 0.00 | 28 | 1016.5 |
| 20260904203236 | 28 | 243 | 6.4 | 17.7 | 0.00 | 0.00 | 0.00 | 28 | 1016.5 |
| 20260904202735 | 28 | 280 | 9.7 | 17.7 | 0.00 | 0.00 | 0.00 | 29 | 1016.5 |
| 20260904202235 | 28 | 191 | 8.0 | 19.3 | 0.00 | 0.00 | 0.00 | 29 | 1016.5 |
| 20260904201235 | 28 | 236 | 14.5 | 19.3 | 0.00 | 0.00 | 0.00 | 29 | 1016.5 |
| 20260904200235 | 28 | 245 | 11.3 | 16.1 | 0.00 | 0.00 | 0.00 | 26 | 1016.6 |
| 20260904195735 | 28 | 238 | 6.4 | 16.1 | 0.00 | 0.00 | 0.00 | 29 | 1016.4 |
| 20260904195235 | 28 | 255 | 6.4 | 20.9 | 0.00 | 0.00 | 0.00 | 28 | 1016.5 |
| 20260904194736 | 28 | 239 | 9.7 | 20.9 | 0.00 | 0.00 | 0.00 | 27 | 1016.7 |
| 20260904193735 | 28 | 217 | 14.5 | 19.3 | 0.00 | 0.00 | 0.00 | 26 | 1016.6 |
| 20260904193235 | 28 | 234 | 8.0 | 19.3 | 0.00 | 0.00 | 0.00 | 26 | 1016.6 |
| 20260904192235 | 28 | 232 | 9.7 | 25.7 | 0.00 | 0.00 | 0.00 | 23 | 1016.7 |
| 20260904191735 | 28 | 252 | 6.4 | 16.1 | 0.00 | 0.00 | 0.00 | 22 | 1016.7 |
| 20260904191235 | 28 | 227 | 3.2 | 14.5 | 0.00 | 0.00 | 0.00 | 21 | 1016.6 |
| 20260904190734 | 28 | 190 | 1.6 | 14.5 | 0.00 | 0.00 | 0.00 | 22 | 1016.8 |
| 20260904190235 | 28 | 244 | 6.4 | 14.5 | 0.00 | 0.00 | 0.00 | 21 | 1016.8 |
| 20260904185734 | 28 | 241 | 9.7 | 16.1 | 0.00 | 0.00 | 0.00 | 20 | 1016.8 |
| 20260904185234 | 28 | 290 | 4.8 | 17.7 | 0.00 | 0.00 | 0.00 | 19 | 1017.0 |
| 20260904184224 | 28 | 234 | 3.2 | 17.7 | 0.00 | 0.00 | 0.00 | 20 | 1016.8 |
| 20260904183734 | 28 | 238 | 9.7 | 16.1 | 0.00 | 0.00 | 0.00 | 21 | 1016.9 |
| 20260904183234 | 28 | 225 | 6.4 | 22.5 | 0.00 | 0.00 | 0.00 | 20 | 1016.9 |
| 20260904182734 | 27 | 232 | 8.0 | 22.5 | 0.00 | 0.00 | 0.00 | 21 | 1016.9 |
| 20260904182234 | 27 | 263 | 9.7 | 19.3 | 0.00 | 0.00 | 0.00 | 20 | 1017.0 |
| 20260904181734 | 27 | 234 | 4.8 | 19.3 | 0.00 | 0.00 | 0.00 | 20 | 1017.0 |
| 20260904181234 | 27 | 98 | 4.8 | 17.7 | 0.00 | 0.00 | 0.00 | 19 | 1017.0 |
| 20260904180734 | 27 | 193 | 0.0 | 17.7 | 0.00 | 0.00 | 0.00 | 18 | 1016.8 |
| 20260904180234 | 27 | 212 | 4.8 | 12.9 | 0.00 | 0.00 | 0.00 | 19 | 1016.7 |
| 20260904175734 | 27 | 9 | 0.0 | 16.1 | 0.00 | 0.00 | 0.00 | 18 | 1016.9 |
| 20260904175223 | 27 | 268 | 4.8 | 16.1 | 0.00 | 0.00 | 0.00 | 18 | 1017.0 |
| 20260904173733 | 26 | 235 | 1.6 | 17.7 | 0.00 | 0.00 | 0.00 | 18 | 1016.7 |
| 20260904173234 | 26 | 270 | 3.2 | 17.7 | 0.00 | 0.00 | 0.00 | 18 | 1016.7 |
| 20260904172734 | 26 | 241 | 16.1 | 17.7 | 0.00 | 0.00 | 0.00 | 17 | 1016.7 |
| 20260904172234 | 26 | 234 | 17.7 | 17.7 | 0.00 | 0.00 | 0.00 | 17 | 1016.7 |
| 20260904171734 | 26 | 229 | 9.7 | 17.7 | 0.00 | 0.00 | 0.00 | 16 | 1016.7 |
| 20260904171233 | 26 | 241 | 9.7 | 16.1 | 0.00 | 0.00 | 0.00 | 15 | 1016.6 |
| 20260904170733 | 26 | 257 | 8.0 | 16.1 | 0.00 | 0.00 | 0.00 | 15 | 1016.6 |
| 20260904170233 | 25 | 252 | 1.6 | 14.5 | 0.00 | 0.00 | 0.00 | 16 | 1016.7 |
| 20260904165733 | 25 | 240 | 12.9 | 14.5 | 0.00 | 0.00 | 0.00 | 16 | 1016.6 |
| 20260904164733 | 25 | 239 | 8.0 | 14.5 | 0.00 | 0.00 | 0.00 | 14 | 1016.3 |
| 20260904164233 | 25 | 255 | 4.8 | 14.5 | 0.00 | 0.00 | 0.00 | 12 | 1016.2 |
| 20260904163733 | 24 | 268 | 1.6 | 12.9 | 0.00 | 0.00 | 0.00 | 13 | 1016.1 |
| 20260904163233 | 24 | 232 | 8.0 | 12.9 | 0.00 | 0.00 | 0.00 | 12 | 1016.0 |
| 20260904162733 | 23 | 231 | 6.4 | 12.9 | 0.00 | 0.00 | 0.00 | 12 | 1015.7 |
| 20260904162233 | 23 | 268 | 1.6 | 12.9 | 0.00 | 0.00 | 0.00 | 10 | 1015.6 |
| 20260904161733 | 23 | 249 | 6.4 | 12.9 | 0.00 | 0.00 | 0.00 | 12 | 1015.5 |
| 20260904161233 | 23 | 246 | 3.2 | 11.3 | 0.00 | 0.00 | 0.00 | 10 | 1015.4 |
| 20260904160733 | 23 | 254 | 4.8 | 11.3 | 0.00 | 0.00 | 0.00 | 9 | 1015.3 |
| 20260904160232 | 23 | 227 | 6.4 | 11.3 | 0.00 | 0.00 | 0.00 | 10 | 1015.4 |
| 20260904155732 | 23 | 221 | 4.8 | 8.0 | 0.00 | 0.00 | 0.00 | 10 | 1015.2 |
| 20260904155233 | 23 | 221 | 1.6 | 8.0 | 0.00 | 0.00 | 0.00 | 9 | 1015.3 |
| 20260904154733 | 23 | 95 | 0.0 | 4.8 | 0.00 | 0.00 | 0.00 | 12 | 1015.2 |
| 20260904154232 | 23 | 74 | 3.2 | 3.2 | 0.00 | 0.00 | 0.00 | 13 | 1015.2 |
| 20260904153733 | 22 | 74 | 0.0 | 0.0 | 0.00 | 0.00 | 0.00 | 14 | 1015.3 |
| 20260904153232 | 22 | 74 | 0.0 | 0.0 | 0.00 | 0.00 | 0.00 | 14 | 1015.0 |
| 20260904152232 | 21 | 74 | 0.0 | 1.6 | 0.00 | 0.00 | 0.00 | 20 | 1014.9 |
| 20260904151732 | 20 | 74 | 0.0 | 3.2 | 0.00 | 0.00 | 0.00 | 23 | 1014.8 |
| 20260904151232 | 19 | 74 | 0.0 | 6.4 | 0.00 | 0.00 | 0.00 | 23 | 1014.4 |
| 20260904150732 | 18 | 74 | 1.6 | 11.3 | 0.00 | 0.00 | 0.00 | 21 | 1014.2 |
| 20260904150232 | 17 | 74 | 3.2 | 11.3 | 0.00 | 0.00 | 0.00 | 24 | 1013.9 |
| 20260904145732 | 16 | 67 | 4.8 | 8.0 | 0.00 | 0.00 | 0.00 | 26 | 1014.0 |
| 20260904144732 | 15 | 69 | 4.8 | 12.9 | 0.00 | 0.00 | 0.00 | 30 | 1013.8 |
| 20260904144231 | 13 | 92 | 9.7 | 11.3 | 0.00 | 0.00 | 0.00 | 32 | 1013.6 |
| 20260904143731 | 13 | 82 | 4.8 | 11.3 | 0.00 | 0.00 | 0.00 | 33 | 1013.4 |
| 20260904143231 | 12 | 82 | 3.2 | 11.3 | 0.00 | 0.00 | 0.00 | 36 | 1013.1 |
| 20260904142732 | 11 | 62 | 3.2 | 11.3 | 0.00 | 0.00 | 0.00 | 38 | 1013.1 |
| 20260904142232 | 11 | 76 | 4.8 | 11.3 | 0.00 | 0.00 | 0.00 | 39 | 1012.8 |
| 20260904141732 | 10 | 55 | 4.8 | 12.9 | 0.00 | 0.00 | 0.00 | 41 | 1012.8 |
| 20260904141234 | 10 | 80 | 3.2 | 12.9 | 0.00 | 0.00 | 0.00 | 42 | 1012.5 |
| 20260904140731 | 9 | 80 | 6.4 | 12.9 | 0.00 | 0.00 | 0.00 | 42 | 1012.5 |
| 20260904140231 | 9 | 64 | 3.2 | 11.3 | 0.00 | 0.00 | 0.00 | 40 | 1012.4 |
| 20260904135731 | 9 | 67 | 4.8 | 12.9 | 0.00 | 0.00 | 0.00 | 41 | 1013.2 |
| 20260904135231 | 8 | 78 | 6.4 | 12.9 | 0.00 | 0.00 | 0.00 | 42 | 1012.9 |
| 20260904134232 | 8 | 51 | 4.8 | 11.3 | 0.00 | 0.00 | 0.00 | 41 | 1013.0 |
| 20260904133731 | 8 | 65 | 4.8 | 11.3 | 0.00 | 0.00 | 0.00 | 41 | 1012.9 |
| 20260904132731 | 8 | 63 | 8.0 | 12.9 | 0.00 | 0.00 | 0.00 | 43 | 1012.8 |
| 20260904131231 | 8 | 76 | 6.4 | 16.1 | 0.00 | 0.00 | 0.00 | 47 | 1012.7 |
| 20260904130730 | 8 | 31 | 8.0 | 16.1 | 0.00 | 0.00 | 0.00 | 47 | 1012.7 |
| 20260904130231 | 8 | 66 | 9.7 | 14.5 | 0.00 | 0.00 | 0.00 | 48 | 1012.5 |
| 20260904125730 | 8 | 69 | 6.4 | 14.5 | 0.00 | 0.00 | 0.00 | 48 | 1013.2 |
| 20260904125230 | 8 | 71 | 9.7 | 14.5 | 0.00 | 0.00 | 0.00 | 48 | 1013.2 |
| 20260904124730 | 9 | 59 | 8.0 | 14.5 | 0.00 | 0.00 | 0.00 | 48 | 1013.4 |
| 20260904124230 | 9 | 36 | 8.0 | 14.5 | 0.00 | 0.00 | 0.00 | 49 | 1013.3 |
| 20260904123730 | 9 | 51 | 8.0 | 12.9 | 0.00 | 0.00 | 0.00 | 49 | 1013.4 |
| 20260904123230 | 9 | 53 | 6.4 | 12.9 | 0.00 | 0.00 | 0.00 | 49 | 1013.2 |
| 20260904122230 | 9 | 80 | 11.3 | 14.5 | 0.00 | 0.00 | 0.00 | 48 | 1013.3 |
| 20260904121730 | 9 | 78 | 12.9 | 14.5 | 0.00 | 0.00 | 0.00 | 49 | 1013.3 |
| 20260904120730 | 10 | 59 | 9.7 | 14.5 | 0.00 | 0.00 | 0.00 | 49 | 1013.4 |
| 20260904120230 | 10 | 75 | 6.4 | 14.5 | 0.00 | 0.00 | 0.00 | 49 | 1013.4 |
| 20260904115730 | 9 | 79 | 11.3 | 14.5 | 0.00 | 0.00 | 0.00 | 50 | 1013.9 |
| 20260904114729 | 10 | 59 | 11.3 | 14.5 | 0.00 | 0.00 | 0.00 | 50 | 1014.3 |
| 20260904114230 | 10 | 65 | 9.7 | 14.5 | 0.00 | 0.00 | 0.00 | 50 | 1014.2 |
| 20260904113730 | 10 | 54 | 6.4 | 12.9 | 0.00 | 0.00 | 0.00 | 50 | 1014.3 |
| 20260904113229 | 10 | 53 | 8.0 | 12.9 | 0.00 | 0.00 | 0.00 | 50 | 1014.4 |
| 20260904112730 | 10 | 69 | 8.0 | 14.5 | 0.00 | 0.00 | 0.00 | 50 | 1014.3 |
| 20260904112230 | 10 | 47 | 8.0 | 14.5 | 0.00 | 0.00 | 0.00 | 50 | 1014.3 |
| 20260904111730 | 10 | 53 | 4.8 | 12.9 | 0.00 | 0.00 | 0.00 | 49 | 1014.3 |
| 20260904111229 | 10 | 67 | 8.0 | 14.5 | 0.00 | 0.00 | 0.00 | 49 | 1014.4 |
| 20260904110259 | 10 | 68 | 9.7 | 14.5 | 0.00 | 0.00 | 0.00 | 48 | 1014.4 |
| 20260904105729 | 10 | 67 | 4.8 | 14.5 | 0.00 | 0.00 | 0.00 | 48 | 1014.7 |
| 20260904105229 | 10 | 75 | 11.3 | 14.5 | 0.00 | 0.00 | 0.00 | 47 | 1014.8 |
| 20260904104729 | 10 | 64 | 8.0 | 14.5 | 0.00 | 0.00 | 0.00 | 47 | 1014.7 |
| 20260904104229 | 10 | 58 | 8.0 | 12.9 | 0.00 | 0.00 | 0.00 | 46 | 1014.8 |
| 20260904103729 | 10 | 69 | 6.4 | 12.9 | 0.00 | 0.00 | 0.00 | 46 | 1014.7 |
| 20260904103229 | 10 | 59 | 6.4 | 12.9 | 0.00 | 0.00 | 0.00 | 45 | 1014.7 |
| 20260904102229 | 10 | 80 | 11.3 | 14.5 | 0.00 | 0.00 | 0.00 | 44 | 1014.7 |
| 20260904101729 | 10 | 66 | 12.9 | 14.5 | 0.00 | 0.00 | 0.00 | 43 | 1014.9 |
| 20260904101229 | 10 | 53 | 9.7 | 14.5 | 0.00 | 0.00 | 0.00 | 43 | 1014.8 |
| 20260904100729 | 10 | 51 | 6.4 | 14.5 | 0.00 | 0.00 | 0.00 | 43 | 1014.7 |
| 20260904100228 | 10 | 40 | 6.4 | 11.3 | 0.00 | 0.00 | 0.00 | 43 | 1014.6 |
| 20260904095728 | 10 | 81 | 6.4 | 12.9 | 0.00 | 0.00 | 0.00 | 43 | 1014.9 |
| 20260904095228 | 10 | 39 | 6.4 | 12.9 | 0.00 | 0.00 | 0.00 | 43 | 1014.8 |
| 20260904094758 | 10 | 44 | 8.0 | 12.9 | 0.00 | 0.00 | 0.00 | 41 | 1015.0 |
| 20260904094258 | 10 | 69 | 8.0 | 12.9 | 0.00 | 0.00 | 0.00 | 41 | 1014.9 |
| 20260904093758 | 10 | 65 | 4.8 | 12.9 | 0.00 | 0.00 | 0.00 | 40 | 1015.0 |
| 20260904093258 | 10 | 57 | 3.2 | 12.9 | 0.00 | 0.00 | 0.00 | 39 | 1014.9 |
| 20260904092758 | 10 | 74 | 6.4 | 12.9 | 0.00 | 0.00 | 0.00 | 38 | 1014.8 |
| 20260904092258 | 11 | 77 | 4.8 | 14.5 | 0.00 | 0.00 | 0.00 | 36 | 1015.0 |
| 20260904091729 | 11 | 57 | 8.0 | 14.5 | 0.00 | 0.00 | 0.00 | 35 | 1015.1 |
| 20260904091227 | 11 | 69 | 8.0 | 12.9 | 0.00 | 0.00 | 0.00 | 34 | 1015.0 |
| 20260904090728 | 11 | 48 | 8.0 | 12.9 | 0.00 | 0.00 | 0.00 | 34 | 1015.1 |
| 20260904090258 | 11 | 57 | 6.4 | 11.3 | 0.00 | 0.00 | 0.00 | 34 | 1015.0 |
| 20260904085728 | 11 | 57 | 6.4 | 11.3 | 0.00 | 0.00 | 0.00 | 34 | 1015.3 |
| 20260904085228 | 11 | 58 | 4.8 | 12.9 | 0.00 | 0.00 | 0.00 | 34 | 1015.5 |
| 20260904084727 | 10 | 44 | 8.0 | 12.9 | 0.00 | 0.00 | 0.00 | 34 | 1015.5 |
| 20260904084228 | 10 | 57 | 4.8 | 12.9 | 0.00 | 0.00 | 0.00 | 34 | 1015.5 |
| 20260904083758 | 10 | 60 | 6.4 | 11.3 | 0.00 | 0.00 | 0.00 | 33 | 1015.7 |
| 20260904082727 | 10 | 65 | 4.8 | 11.3 | 0.00 | 0.00 | 0.00 | 34 | 1015.7 |
| 20260904082257 | 10 | 44 | 8.0 | 11.3 | 0.00 | 0.00 | 0.00 | 33 | 1015.8 |
| 20260904080727 | 10 | 50 | 9.7 | 12.9 | 0.00 | 0.00 | 0.00 | 30 | 1015.6 |
| 20260904080257 | 10 | 57 | 6.4 | 12.9 | 0.00 | 0.00 | 0.00 | 29 | 1015.8 |
| 20260904075727 | 10 | 39 | 6.4 | 12.9 | 0.00 | 0.00 | 0.00 | 28 | 1015.7 |
| 20260904074727 | 10 | 69 | 6.4 | 12.9 | 0.00 | 0.00 | 0.00 | 28 | 1015.8 |
| 20260904074257 | 11 | 71 | 4.8 | 12.9 | 0.00 | 0.00 | 0.00 | 28 | 1015.9 |
| 20260904073727 | 11 | 51 | 4.8 | 12.9 | 0.00 | 0.00 | 0.00 | 28 | 1015.9 |
| 20260904072726 | 11 | 34 | 4.8 | 12.9 | 0.00 | 0.00 | 0.00 | 29 | 1015.8 |
| 20260904072226 | 11 | 72 | 6.4 | 12.9 | 0.00 | 0.00 | 0.00 | 29 | 1015.8 |
| 20260904071227 | 11 | 68 | 6.4 | 12.9 | 0.00 | 0.00 | 0.00 | 31 | 1015.9 |
| 20260904070256 | 11 | 68 | 3.2 | 12.9 | 0.00 | 0.00 | 0.00 | 32 | 1016.2 |
| 20260904065756 | 11 | 68 | 6.4 | 12.9 | 0.00 | 0.00 | 0.00 | 31 | 1015.6 |
| 20260904065256 | 11 | 50 | 6.4 | 12.9 | 0.00 | 0.00 | 0.00 | 31 | 1015.5 |
| 20260904064756 | 11 | 77 | 8.0 | 12.9 | 0.00 | 0.00 | 0.00 | 31 | 1015.6 |
| 20260904063756 | 11 | 55 | 8.0 | 12.9 | 0.00 | 0.00 | 0.00 | 31 | 1015.6 |
| 20260904063256 | 11 | 61 | 8.0 | 12.9 | 0.00 | 0.00 | 0.00 | 32 | 1015.6 |
| 20260904062756 | 11 | 69 | 9.7 | 9.7 | 0.00 | 0.00 | 0.00 | 33 | 1015.4 |
| 20260904062256 | 11 | 46 | 6.4 | 9.7 | 0.00 | 0.00 | 0.00 | 34 | 1015.4 |
| 20260904061756 | 11 | 64 | 8.0 | 11.3 | 0.00 | 0.00 | 0.00 | 34 | 1015.4 |
| 20260904060755 | 12 | 58 | 3.2 | 11.3 | 0.00 | 0.00 | 0.00 | 35 | 1015.6 |
| 20260904060245 | 12 | 67 | 6.4 | 11.3 | 0.00 | 0.00 | 0.00 | 35 | 1015.6 |
| 20260904055756 | 12 | 74 | 4.8 | 12.9 | 0.00 | 0.00 | 0.00 | 37 | 1015.5 |
| 20260904055255 | 12 | 71 | 4.8 | 12.9 | 0.00 | 0.00 | 0.00 | 37 | 1015.6 |
| 20260904054755 | 12 | 69 | 8.0 | 11.3 | 0.00 | 0.00 | 0.00 | 37 | 1015.7 |
| 20260904054256 | 12 | 68 | 8.0 | 11.3 | 0.00 | 0.00 | 0.00 | 40 | 1015.7 |
| 20260904053755 | 12 | 88 | 4.8 | 12.9 | 0.00 | 0.00 | 0.00 | 41 | 1015.6 |
| 20260904053245 | 12 | 82 | 11.3 | 12.9 | 0.00 | 0.00 | 0.00 | 42 | 1015.5 |
| 20260904051755 | 12 | 67 | 8.0 | 11.3 | 0.00 | 0.00 | 0.00 | 45 | 1015.7 |
| 20260904051255 | 12 | 68 | 4.8 | 11.3 | 0.00 | 0.00 | 0.00 | 47 | 1015.7 |
| 20260904050755 | 12 | 61 | 4.8 | 11.3 | 0.00 | 0.00 | 0.00 | 49 | 1015.7 |
| 20260904050244 | 12 | 81 | 11.3 | 11.3 | 0.00 | 0.00 | 0.00 | 52 | 1015.7 |
| 20260904045755 | 12 | 65 | 6.4 | 12.9 | 0.00 | 0.00 | 0.00 | 54 | 1015.5 |
| 20260904045255 | 12 | 80 | 8.0 | 12.9 | 0.00 | 0.00 | 0.00 | 55 | 1015.5 |
| 20260904044755 | 12 | 72 | 8.0 | 11.3 | 0.00 | 0.00 | 0.00 | 57 | 1015.2 |
| 20260904044255 | 12 | 71 | 4.8 | 11.3 | 0.00 | 0.00 | 0.00 | 57 | 1015.1 |
| 20260904043755 | 12 | 80 | 8.0 | 11.3 | 0.00 | 0.00 | 0.00 | 59 | 1015.1 |
| 20260904043255 | 12 | 80 | 0.0 | 8.0 | 0.00 | 0.00 | 0.00 | 59 | 1015.1 |
| 20260904042755 | 12 | 87 | 1.6 | 8.0 | 0.00 | 0.00 | 0.00 | 59 | 1015.4 |
| 20260904042254 | 12 | 76 | 4.8 | 8.0 | 0.00 | 0.00 | 0.00 | 58 | 1015.4 |
| 20260904041755 | 12 | 71 | 4.8 | 11.3 | 0.00 | 0.00 | 0.00 | 58 | 1015.4 |
| 20260904041254 | 12 | 63 | 4.8 | 14.5 | 0.00 | 0.00 | 0.00 | 60 | 1015.4 |
| 20260904040754 | 12 | 72 | 6.4 | 14.5 | 0.00 | 0.00 | 0.00 | 58 | 1015.4 |
| 20260904040255 | 12 | 61 | 8.0 | 11.3 | 0.00 | 0.00 | 0.00 | 59 | 1015.5 |
| 20260904035755 | 12 | 69 | 8.0 | 12.9 | 0.00 | 0.00 | 0.00 | 64 | 1015.1 |
| 20260904035254 | 13 | 82 | 8.0 | 12.9 | 0.00 | 0.00 | 0.00 | 64 | 1015.2 |
| 20260904034754 | 13 | 78 | 4.8 | 12.9 | 0.00 | 0.00 | 0.00 | 65 | 1015.2 |
| 20260904034254 | 13 | 50 | 4.8 | 12.9 | 0.00 | 0.00 | 0.00 | 67 | 1015.2 |
| 20260904033754 | 13 | 91 | 9.7 | 9.7 | 0.00 | 0.00 | 0.00 | 70 | 1015.2 |
| 20260904032754 | 13 | 80 | 3.2 | 8.0 | 0.00 | 0.00 | 0.00 | 71 | 1015.2 |
| 20260904032254 | 13 | 73 | 4.8 | 8.0 | 0.00 | 0.00 | 0.00 | 71 | 1015.2 |
| 20260904031754 | 13 | 72 | 4.8 | 8.0 | 0.00 | 0.00 | 0.00 | 71 | 1015.2 |
| 20260904030754 | 14 | 75 | 3.2 | 8.0 | 0.00 | 0.00 | 0.00 | 70 | 1015.3 |
| 20260904030254 | 15 | 67 | 6.4 | 8.0 | 0.00 | 0.00 | 0.00 | 69 | 1015.4 |
| 20260904025754 | 15 | 77 | 4.8 | 6.4 | 0.00 | 0.00 | 0.00 | 68 | 1014.2 |
| 20260904025254 | 15 | 219 | 3.2 | 6.4 | 0.00 | 0.00 | 0.00 | 67 | 1014.1 |
| 20260904024754 | 16 | 231 | 3.2 | 4.8 | 0.00 | 0.00 | 0.00 | 67 | 1014.5 |
| 20260904024253 | 16 | 233 | 0.0 | 3.2 | 0.00 | 0.00 | 0.00 | 65 | 1014.4 |
| 20260904023753 | 16 | 233 | 1.6 | 3.2 | 0.00 | 0.00 | 0.00 | 64 | 1014.2 |
| 20260904022753 | 17 | 233 | 0.0 | 0.0 | 0.00 | 0.00 | 0.00 | 64 | 1014.3 |
| 20260904022254 | 17 | 233 | 0.0 | 1.6 | 0.00 | 0.00 | 0.00 | 63 | 1014.3 |
| 20260904021753 | 17 | 233 | 0.0 | 3.2 | 0.00 | 0.00 | 0.00 | 64 | 1014.3 |
| 20260904021253 | 18 | 233 | 0.0 | 3.2 | 0.00 | 0.00 | 0.00 | 64 | 1014.6 |
| 20260904020753 | 18 | 233 | 0.0 | 3.2 | 0.00 | 0.00 | 0.00 | 63 | 1014.7 |